TimeMST,TemperatureF,Dew PointF,Humidity,Sea Level PressureIn,VisibilityMPH,Wind Direction,Wind SpeedMPH,Gust SpeedMPH,PrecipitationIn,Events,Conditions,WindDirDegrees,DateUTC
12:53 AM,17.6,8.6,68,29.97,10.0,ESE,12.7,-,N/A,,Overcast,110,2012-12-30 07:53:00
12:58 AM,17.1,9.1,71,30.08,10.0,ESE,11.5,-,N/A,,Overcast,110,2012-12-30 07:58:00
1:03 AM,17.6,8.6,68,29.98,10.0,East,11.5,-,N/A,,Overcast,100,2012-12-30 08:03:00
1:58 AM,18.9,10.2,69,30.06,10.0,ESE,11.5,-,N/A,,Overcast,110,2012-12-30 08:58:00
2:58 AM,18.5,10.4,71,30.08,10.0,ESE,5.8,-,N/A,,Overcast,120,2012-12-30 09:58:00
3:13 AM,17.6,10.4,73,29.99,10.0,ESE,10.4,-,N/A,,Overcast,110,2012-12-30 10:13:00
3:23 AM,17.6,10.4,73,29.99,10.0,ESE,12.7,-,N/A,,Overcast,110,2012-12-30 10:23:00
3:58 AM,18.5,9.9,69,30.09,10.0,ESE,10.4,-,N/A,,Overcast,110,2012-12-30 10:58:00
4:58 AM,18.0,9.7,70,30.11,10.0,ESE,5.8,-,N/A,,Overcast,110,2012-12-30 11:58:00
5:58 AM,18.3,9.5,68,30.09,10.0,ESE,10.4,-,N/A,,Overcast,110,2012-12-30 12:58:00
6:28 AM,19.4,10.4,68,29.98,10.0,ESE,8.1,-,N/A,,Overcast,110,2012-12-30 13:28:00
6:43 AM,17.6,10.4,73,29.99,10.0,ESE,11.5,-,N/A,,Overcast,110,2012-12-30 13:43:00
6:58 AM,17.8,9.7,71,30.12,10.0,ESE,10.4,-,N/A,,Overcast,120,2012-12-30 13:58:00
7:53 AM,17.6,10.4,73,29.99,10.0,ESE,6.9,-,N/A,,Overcast,110,2012-12-30 14:53:00
7:58 AM,18.0,10.8,73,30.11,10.0,ESE,5.8,-,N/A,,Overcast,110,2012-12-30 14:58:00
8:43 AM,17.6,10.4,73,29.99,10.0,ESE,3.5,-,N/A,,Overcast,110,2012-12-30 15:43:00
8:58 AM,19.4,10.4,68,30.12,10.0,ESE,9.2,-,N/A,,Overcast,110,2012-12-30 15:58:00
9:03 AM,17.6,8.6,68,30.00,10.0,ESE,10.4,-,N/A,,Overcast,110,2012-12-30 16:03:00
9:18 AM,17.6,8.6,68,30.00,10.0,ESE,9.2,-,N/A,,Overcast,120,2012-12-30 16:18:00
9:38 AM,19.4,10.4,68,30.00,10.0,ESE,12.7,-,N/A,,Overcast,110,2012-12-30 16:38:00
9:58 AM,19.4,9.9,66,30.13,10.0,ESE,12.7,-,N/A,,Overcast,120,2012-12-30 16:58:00
10:18 AM,21.2,10.4,63,30.01,10.0,ESE,8.1,-,N/A,,Overcast,110,2012-12-30 17:18:00
10:33 AM,21.2,10.4,63,30.02,10.0,ESE,6.9,-,N/A,,Overcast,120,2012-12-30 17:33:00
10:38 AM,21.2,12.2,68,30.02,10.0,Variable,2.3,-,N/A,,Overcast,0,2012-12-30 17:38:00
10:43 AM,23.0,12.2,63,30.02,10.0,Variable,1.2,-,N/A,,Overcast,0,2012-12-30 17:43:00
10:58 AM,21.2,10.4,63,30.15,10.0,SE,4.6,-,N/A,,Overcast,130,2012-12-30 17:58:00
11:08 AM,21.2,10.4,63,30.02,10.0,SE,3.5,-,N/A,,Overcast,130,2012-12-30 18:08:00
11:28 AM,23.0,12.2,63,30.02,10.0,East,6.9,-,N/A,,Overcast,100,2012-12-30 18:28:00
11:58 AM,23.5,11.8,61,30.12,10.0,ENE,3.5,-,N/A,,Mostly Cloudy,70,2012-12-30 18:58:00
12:58 PM,24.6,16.7,72,30.09,10.0,NNW,3.5,-,N/A,,Clear,330,2012-12-30 19:58:00
1:08 PM,24.8,15.8,69,29.99,10.0,WNW,2.3,-,N/A,,Mostly Cloudy,300,2012-12-30 20:08:00
1:28 PM,26.6,15.8,64,29.99,10.0,NW,3.5,-,N/A,,Scattered Clouds,320,2012-12-30 20:28:00
1:58 PM,26.2,17.6,70,30.07,10.0,NW,6.9,-,N/A,,Clear,320,2012-12-30 20:58:00
2:58 PM,26.1,18.1,72,30.07,10.0,NW,5.8,-,N/A,,Partly Cloudy,310,2012-12-30 21:58:00
3:58 PM,23.9,16.7,74,30.09,10.0,NW,5.8,-,N/A,,Clear,310,2012-12-30 22:58:00
4:58 PM,20.8,15.6,80,30.11,10.0,NW,5.8,-,N/A,,Clear,310,2012-12-30 23:58:00
5:33 PM,19.4,15.8,86,30.00,10.0,NW,5.8,-,N/A,,Mostly Cloudy,320,2012-12-31 00:33:00
5:48 PM,19.4,15.8,86,30.00,10.0,North,4.6,-,N/A,,Overcast,360,2012-12-31 00:48:00
5:58 PM,19.4,16.0,87,30.12,10.0,North,4.6,-,N/A,,Mostly Cloudy,350,2012-12-31 00:58:00
6:03 PM,19.4,15.8,86,30.00,10.0,North,4.6,-,N/A,,Mostly Cloudy,360,2012-12-31 01:03:00
6:08 PM,19.4,15.8,86,30.00,10.0,North,5.8,-,N/A,,Scattered Clouds,360,2012-12-31 01:08:00
6:13 PM,19.4,15.8,86,30.00,10.0,North,3.5,-,N/A,,Mostly Cloudy,360,2012-12-31 01:13:00
6:58 PM,19.6,15.6,85,30.12,10.0,NE,2.3,-,N/A,,Overcast,50,2012-12-31 01:58:00
7:33 PM,19.4,15.8,86,30.00,10.0,NNW,1.2,-,N/A,,Scattered Clouds,330,2012-12-31 02:33:00
7:58 PM,19.6,15.3,83,30.12,10.0,NNW,4.6,-,N/A,,Clear,340,2012-12-31 02:58:00
8:58 PM,18.0,14.4,86,30.13,10.0,Calm,Calm,-,N/A,,Clear,0,2012-12-31 03:58:00
9:58 PM,15.3,12.9,90,30.14,10.0,SSE,5.8,-,N/A,,Clear,150,2012-12-31 04:58:00
10:58 PM,15.4,12.4,88,30.15,10.0,ESE,2.3,-,N/A,,Clear,110,2012-12-31 05:58:00
11:58 PM,15.4,12.6,88,30.15,10.0,East,5.8,-,N/A,,Partly Cloudy,100,2012-12-31 06:58:00